Location: *
(49.4547°N, 7.9131°E)
Time: 08:17:30
(UTC+00:00)

Cosmos 405 Rocket - Pass Details

Date: 22 September 2019
Orbit: 491 x 554 km, 81.3° (Epoch: 20 October)

Event Time Altitude Azimuth Distance (km) Brightness Sun altitude
Rises 18:31:18 0° 174° (S) 2,558 6.0 -11.1°
Reaches altitude 10° 18:33:27 10° 168° (SSE) 1,683 5.0 -11.5°
Maximum altitude 18:36:57 44° 96° (E) 701 2.9 -12.0°
Drops below altitude 10° 18:40:32 10° 24° (NNE) 1,715 5.3 -12.6°
Sets 18:42:44 0° 18° (NNE) 2,613 6.3 -12.9°
